Hays, KS

3:37 AM CDT on May 24, 2017 (GMT -0500)
Hays Regional

Weather History for KHYS - September, 2013

Change the Weather History Date:

Saturday, September 28, 2013

  Actual Average Record
Temperature  
Mean Temperature 58 °F -  
Max Temperature 69 °F 73 °F 91 °F (1998)
Min Temperature 48 °F 47 °F 33 °F (1996)
Degree Days  
Heating Degree Days 6    
Growing Degree Days 8 (Base 50)    
Moisture  
Dew Point 45 °F    
Average Humidity 65    
Maximum Humidity 94    
Minimum Humidity 33    
Precipitation  
Precipitation 0.00 in - - ()
Sea Level Pressure  
Sea Level Pressure 30.03 in    
Wind  
Wind Speed 13 mph (NW)    
Max Wind Speed 24 mph    
Max Gust Speed 34 mph    
Visibility 10 miles    
Events Thunderstorm    
Averages and records for this station are not official NWS values.
T = Trace of Precipitation, MM = Missing Value Source: NWS Daily Summary

Daily Weather History Graph

Daily Weather History Graph

Search for Another Location

Airport or City:

Trip Planner

Search our weather history database for the weather conditions in past years. The results will help you decide how hot, cold, wet, or windy it might be!

Date:

Astronomy

Sep. 28, 2013 Rise Set
Actual Time 7:30 AM CDT 7:24 PM CDT
Civil Twilight 7:03 AM CDT 7:50 PM CDT
Nautical Twilight 6:33 AM CDT 8:21 PM CDT
Astronomical Twilight 6:01 AM CDT 8:52 PM CDT
Moon 1:22 AM CDT (9/28) 3:41 PM CDT (9/28)
Length of Visible Light 12h 46m
Length of Day
11h 53m
Waning Crescent, 36% of the Moon is Illuminated
Sep 28
Waning Crescent
Oct 4
New
Oct 11
First Quarter
Oct 18
Full
Oct 26
Last Quarter

Hourly Weather History & Observations

Time (CDT) Temp. Dew Point Humidity Pressure Visibility Wind Dir Wind Speed Gust Speed Precip Events Conditions
12:15 AM 69.8 °F 64.4 °F 83% 29.68 in 10.0 mi South 17.3 mph - N/A   Clear
12:35 AM 69.8 °F 64.4 °F 83% 29.69 in 10.0 mi SSE 16.1 mph - N/A   Mostly Cloudy
12:55 AM 69.8 °F 64.4 °F 83% 29.76 in 10.0 mi NW 18.4 mph - N/A   Mostly Cloudy
1:15 AM 57.2 °F 53.6 °F 88% 29.78 in 2.5 mi NNW 24.2 mph 34.5 mph N/A Thunderstorm Thunderstorm
1:35 AM 53.6 °F 51.8 °F 94% 29.82 in 3.0 mi NW 18.4 mph - N/A Thunderstorm Overcast
1:55 AM 53.6 °F 51.8 °F 94% 29.81 in 7.0 mi NNW 21.9 mph 29.9 mph N/A   Overcast
2:15 AM 53.6 °F 51.8 °F 94% 29.84 in 10.0 mi NW 20.7 mph - N/A   Mostly Cloudy
2:35 AM 51.8 °F 50.0 °F 94% 29.86 in 10.0 mi NW 18.4 mph 27.6 mph N/A   Mostly Cloudy
2:55 AM 51.8 °F 50.0 °F 94% 29.88 in 10.0 mi NNW 16.1 mph - N/A   Mostly Cloudy
3:15 AM 51.8 °F 48.2 °F 88% 29.88 in 10.0 mi NNW 17.3 mph 24.2 mph N/A   Mostly Cloudy
3:35 AM 51.8 °F 46.4 °F 82% 29.90 in 10.0 mi NNW 16.1 mph 21.9 mph N/A   Scattered Clouds
3:55 AM 51.8 °F 46.4 °F 82% 29.89 in 10.0 mi NNW 13.8 mph - N/A   Clear
4:15 AM 51.8 °F 46.4 °F 82% 29.90 in 10.0 mi NNW 16.1 mph 23.0 mph N/A   Clear
4:35 AM 51.8 °F 46.4 °F 82% 29.92 in 10.0 mi NW 15.0 mph 19.6 mph N/A   Clear
4:55 AM 51.8 °F 46.4 °F 82% 29.93 in 10.0 mi NNW 12.7 mph - N/A   Clear
5:15 AM 51.8 °F 44.6 °F 76% 29.94 in 10.0 mi NNW 11.5 mph - N/A   Clear
5:35 AM 51.8 °F 44.6 °F 76% 29.96 in 10.0 mi NW 11.5 mph - N/A   Clear
5:55 AM 50.0 °F 44.6 °F 82% 29.98 in 10.0 mi NW 12.7 mph - N/A   Clear
6:15 AM 50.0 °F 44.6 °F 82% 29.97 in 10.0 mi NW 16.1 mph - N/A   Clear
6:35 AM 50.0 °F 44.6 °F 82% 29.99 in 10.0 mi NW 17.3 mph 20.7 mph N/A   Clear
6:55 AM 50.0 °F 42.8 °F 76% 30.00 in 10.0 mi NW 15.0 mph - N/A   Clear
7:15 AM 50.0 °F 44.6 °F 82% 30.01 in 10.0 mi NW 12.7 mph - N/A   Clear
7:35 AM 50.0 °F 44.6 °F 82% 30.03 in 10.0 mi NW 11.5 mph - N/A   Clear
7:55 AM 48.2 °F 44.6 °F 87% 30.04 in 10.0 mi NW 9.2 mph - N/A   Clear
8:15 AM 48.2 °F 44.6 °F 87% 30.05 in 10.0 mi WNW 4.6 mph - N/A   Clear
8:35 AM 50.0 °F 44.6 °F 82% 30.05 in 10.0 mi WNW 6.9 mph - N/A   Clear
8:55 AM 50.0 °F 44.6 °F 82% 30.06 in 10.0 mi WNW 9.2 mph - N/A   Clear
9:15 AM 51.8 °F 44.6 °F 76% 30.06 in 10.0 mi NW 10.4 mph - N/A   Clear
9:35 AM 53.6 °F 44.6 °F 72% 30.07 in 10.0 mi NW 9.2 mph - N/A   Clear
9:55 AM 55.4 °F 44.6 °F 67% 30.07 in 10.0 mi NW 10.4 mph - N/A   Clear
10:15 AM 55.4 °F 44.6 °F 67% 30.09 in 10.0 mi NW 10.4 mph - N/A   Clear
10:35 AM 57.2 °F 42.8 °F 59% 30.09 in 10.0 mi NW 10.4 mph - N/A   Clear
10:55 AM 57.2 °F 42.8 °F 59% 30.09 in 10.0 mi NNW 11.5 mph - N/A   Clear
11:15 AM 59.0 °F 42.8 °F 55% 30.10 in 10.0 mi NW 12.7 mph - N/A   Clear
11:35 AM 60.8 °F 42.8 °F 52% 30.10 in 10.0 mi NW 12.7 mph - N/A   Clear
11:55 AM 60.8 °F 41.0 °F 48% 30.10 in 10.0 mi NNW 13.8 mph - N/A   Clear
12:15 PM 62.6 °F 42.8 °F 48% 30.11 in 10.0 mi NW 12.7 mph - N/A   Clear
12:35 PM 62.6 °F 42.8 °F 48% 30.10 in 10.0 mi NW 12.7 mph - N/A   Clear
12:55 PM 62.6 °F 42.8 °F 48% 30.10 in 10.0 mi NNW 12.7 mph - N/A   Clear
1:15 PM 64.4 °F 42.8 °F 45% 30.10 in 10.0 mi NNW 12.7 mph - N/A   Clear
1:35 PM 64.4 °F 41.0 °F 42% 30.09 in 10.0 mi WNW 9.2 mph - N/A   Clear
1:55 PM 64.4 °F 41.0 °F 42% - 10.0 mi North - - N/A   Clear
2:15 PM - - N/A% - - North - - N/A   Unknown
2:35 PM - - N/A% - - North - - N/A   Unknown
2:55 PM 66.2 °F 37.4 °F 35% 30.08 in 10.0 mi NW 10.4 mph - N/A   Unknown
3:15 PM 66.2 °F 41.0 °F 40% 30.08 in 10.0 mi NNW 8.1 mph - N/A   Clear
3:35 PM 66.2 °F 39.2 °F 37% 30.08 in 10.0 mi NW 10.4 mph - N/A   Clear
3:55 PM 66.2 °F 39.2 °F 37% 30.08 in 10.0 mi NNW 8.1 mph - N/A   Clear
4:15 PM 66.2 °F 39.2 °F 37% 30.08 in 10.0 mi NW 9.2 mph - N/A   Clear
4:35 PM 68.0 °F 39.2 °F 35% 30.08 in 10.0 mi NW 8.1 mph - N/A   Clear
4:55 PM 68.0 °F 39.2 °F 35% 30.08 in 10.0 mi NNW 8.1 mph - N/A   Clear
5:15 PM 68.0 °F 37.4 °F 33% 30.09 in 10.0 mi NW 8.1 mph - N/A   Clear
5:35 PM 66.2 °F 37.4 °F 35% 30.09 in 10.0 mi NNW 10.4 mph - N/A   Clear
5:55 PM 66.2 °F 39.2 °F 37% 30.09 in 10.0 mi NW 8.1 mph - N/A   Clear
6:15 PM 66.2 °F 37.4 °F 35% 30.09 in 10.0 mi NW 8.1 mph - N/A   Clear
6:35 PM 66.2 °F 39.2 °F 37% 30.09 in 10.0 mi NNW 6.9 mph - N/A   Clear
6:55 PM 64.4 °F 41.0 °F 42% 30.09 in 10.0 mi NNW 3.5 mph - N/A   Clear
7:15 PM 64.4 °F 41.0 °F 42% 30.10 in 10.0 mi Calm Calm - N/A   Clear
7:35 PM 62.6 °F 41.0 °F 45% 30.10 in 10.0 mi Calm Calm - N/A   Clear
7:55 PM 60.8 °F 42.8 °F 52% 30.10 in 10.0 mi Calm Calm - N/A   Clear
8:15 PM 60.8 °F 39.2 °F 45% 30.11 in 10.0 mi Calm Calm - N/A   Clear
8:35 PM 59.0 °F 42.8 °F 55% 30.11 in 10.0 mi Calm Calm - N/A   Clear
8:55 PM 57.2 °F 42.8 °F 59% 30.11 in 10.0 mi Calm Calm - N/A   Clear
9:15 PM 55.4 °F 42.8 °F 63% 30.12 in 10.0 mi Calm Calm - N/A   Clear
9:35 PM 55.4 °F 44.6 °F 67% 30.12 in 10.0 mi Calm Calm - N/A   Clear
9:55 PM 53.6 °F 46.4 °F 77% 30.12 in 10.0 mi Calm Calm - N/A   Clear
10:15 PM 53.6 °F 48.2 °F 82% 30.12 in 10.0 mi Calm Calm - N/A   Clear
10:35 PM 50.0 °F 46.4 °F 87% 30.13 in 10.0 mi Calm Calm - N/A   Clear
10:55 PM 50.0 °F 46.4 °F 87% 30.13 in 10.0 mi Calm Calm - N/A   Clear
11:15 PM 51.8 °F 46.4 °F 82% 30.13 in 10.0 mi Calm Calm - N/A   Clear
11:35 PM 51.8 °F 44.6 °F 76% 30.13 in 10.0 mi Calm Calm - N/A   Clear
11:55 PM 51.8 °F 42.8 °F 71% 30.13 in 10.0 mi Calm Calm - N/A   Clear